| time (UTC) | temp C | wind direction | speed KPH | gust KPH | rain 1hr cm | rain 24hr cm | rain mn cm | humidity % | barometer mb |
| 20260502163404 | 16 | 341 | 1.6 | 11.3 | 0.00 | 0.05 | 0.00 | 36 | 1009.0 |
| 20260502160905 | 16 | 346 | 1.6 | 4.8 | 0.00 | 0.05 | 0.00 | 42 | 1009.3 |
| 20260502160405 | 16 | 337 | 0.0 | 4.8 | 0.00 | 0.05 | 0.00 | 43 | 1009.4 |
| 20260502151904 | 16 | 58 | 0.0 | 4.8 | 0.00 | 0.05 | 0.00 | 45 | 1009.8 |
| 20260502150905 | 16 | 58 | 0.0 | 3.2 | 0.00 | 0.05 | 0.00 | 42 | 1009.8 |
| 20260502150405 | 16 | 31 | 1.6 | 9.7 | 0.00 | 0.05 | 0.00 | 44 | 1009.8 |
| 20260502130403 | 15 | 24 | 1.6 | 9.7 | 0.00 | 0.05 | 0.00 | 41 | 1011.1 |
| 20260502123405 | 15 | 57 | 1.6 | 9.7 | 0.00 | 0.05 | 0.00 | 39 | 1011.7 |
| 20260502121403 | 13 | 24 | 3.2 | 11.3 | 0.00 | 0.05 | 0.00 | 32 | 1012.0 |
| 20260502120905 | 13 | 51 | 3.2 | 8.0 | 0.00 | 0.05 | 0.00 | 27 | 1012.0 |
| 20260502120405 | 13 | 121 | 1.6 | 11.3 | 0.00 | 0.05 | 0.00 | 28 | 1012.0 |
| 20260502114403 | 13 | 108 | 0.0 | 4.8 | 0.00 | 0.05 | 0.00 | 20 | 1012.4 |
| 20260502113904 | 13 | 76 | 3.2 | 11.3 | 0.00 | 0.05 | 0.00 | 13 | 1012.4 |
| 20260502111903 | 13 | 45 | 3.2 | 4.8 | 0.00 | 0.05 | 0.00 | 3 | 1012.7 |
| 20260502110904 | 13 | 80 | 0.0 | 4.8 | 0.00 | 0.05 | 0.00 | 3 | 1012.7 |
| 20260502104904 | 12 | 17 | 0.0 | 3.2 | 0.00 | 0.05 | 0.00 | 3 | 1012.6 |
| 20260502104404 | 12 | 136 | 0.0 | 1.6 | 0.00 | 0.05 | 0.00 | 3 | 1012.7 |
| 20260502103904 | 12 | 138 | 0.0 | 4.8 | 0.00 | 0.05 | 0.00 | 3 | 1012.7 |
| 20260502103403 | 12 | 66 | 3.2 | 4.8 | 0.00 | 0.05 | 0.00 | 3 | 1012.6 |
| 20260502101404 | 12 | 76 | 1.6 | 8.0 | 0.00 | 0.05 | 0.00 | 3 | 1013.1 |
| 20260502100904 | 12 | 79 | 1.6 | 9.7 | 0.00 | 0.05 | 0.00 | 3 | 1013.1 |
| 20260502100404 | 12 | 138 | 1.6 | 8.0 | 0.00 | 0.05 | 0.00 | 3 | 1013.1 |
| 20260502091403 | 12 | 42 | 1.6 | 8.0 | 0.00 | 0.05 | 0.00 | 3 | 1013.3 |
| 20260502090905 | 12 | 82 | 1.6 | 4.8 | 0.00 | 0.05 | 0.00 | 3 | 1013.3 |
| 20260502064904 | 7 | 314 | 0.0 | 0.0 | 0.00 | 0.05 | 0.00 | 3 | 1013.3 |
| 20260502063904 | 7 | 313 | 0.0 | 0.0 | 0.00 | 0.05 | 0.00 | 3 | 1013.4 |
| 20260502063404 | 7 | 313 | 0.0 | 0.0 | 0.00 | 0.05 | 0.00 | 3 | 1013.4 |
| 20260502053904 | 6 | 313 | 0.0 | 0.0 | 0.00 | 0.05 | 0.00 | 3 | 1013.3 |
| 20260502053405 | 6 | 313 | 0.0 | 0.0 | 0.00 | 0.05 | 0.00 | 3 | 1013.3 |
| 20260502051404 | 7 | 313 | 0.0 | 0.0 | 0.00 | 0.05 | 0.00 | 3 | 1013.3 |
| 20260502044904 | 7 | 313 | 0.0 | 0.0 | 0.00 | 0.05 | 0.00 | 3 | 1013.3 |
| 20260502043905 | 7 | 313 | 0.0 | 0.0 | 0.00 | 0.05 | 0.00 | 3 | 1013.3 |
| 20260502043404 | 7 | 313 | 0.0 | 0.0 | 0.00 | 0.05 | 0.00 | 3 | 1013.3 |
| 20260502041404 | 7 | 313 | 0.0 | 0.0 | 0.00 | 0.05 | 0.00 | 3 | 1013.3 |
| 20260502040903 | 7 | 313 | 0.0 | 0.0 | 0.00 | 0.05 | 0.00 | 3 | 1013.4 |
| 20260502034404 | 7 | 313 | 0.0 | 0.0 | 0.00 | 0.05 | 0.00 | 3 | 1013.4 |
| 20260502031403 | 7 | 313 | 0.0 | 0.0 | 0.00 | 0.05 | 0.00 | 3 | 1013.6 |
| 20260502030403 | 7 | 313 | 0.0 | 0.0 | 0.00 | 0.05 | 0.00 | 3 | 1013.6 |
| 20260502024904 | 7 | 313 | 0.0 | 0.0 | 0.00 | 0.05 | 0.00 | 3 | 1013.6 |
| 20260502024403 | 7 | 313 | 0.0 | 0.0 | 0.00 | 0.05 | 0.00 | 3 | 1013.6 |
| 20260502023905 | 7 | 313 | 0.0 | 0.0 | 0.00 | 0.05 | 0.00 | 3 | 1013.7 |
| 20260502020904 | 7 | 313 | 0.0 | 0.0 | 0.00 | 0.05 | 0.00 | 3 | 1013.8 |
| 20260502014904 | 7 | 313 | 0.0 | 0.0 | 0.00 | 0.05 | 0.00 | 3 | 1014.0 |
| 20260502011405 | 7 | 313 | 0.0 | 0.0 | 0.00 | 0.05 | 0.00 | 3 | 1014.4 |
| 20260502003904 | 8 | 313 | 0.0 | 0.0 | 0.00 | 0.05 | 0.00 | 3 | 1014.7 |
| 20260501234903 | 11 | 313 | 0.0 | 0.0 | 0.00 | 0.05 | 0.00 | 3 | 1014.9 |
| 20260501233904 | 11 | 313 | 0.0 | 0.0 | 0.00 | 0.05 | 0.00 | 3 | 1015.0 |
| 20260501233404 | 11 | 313 | 0.0 | 0.0 | 0.00 | 0.05 | 0.00 | 3 | 1014.9 |
| 20260501231904 | 10 | 313 | 0.0 | 0.0 | 0.00 | 0.05 | 0.00 | 3 | 1014.9 |
| 20260501230403 | 10 | 313 | 0.0 | 0.0 | 0.00 | 0.05 | 0.00 | 3 | 1015.0 |
| 20260501224903 | 10 | 313 | 0.0 | 0.0 | 0.00 | 0.05 | 0.05 | 3 | 1015.0 |
| 20260501223903 | 10 | 313 | 0.0 | 0.0 | 0.00 | 0.05 | 0.05 | 3 | 1014.9 |
| 20260501220904 | 11 | 313 | 0.0 | 0.0 | 0.00 | 0.05 | 0.05 | 3 | 1015.2 |
| 20260501220404 | 11 | 313 | 0.0 | 0.0 | 0.00 | 0.05 | 0.05 | 3 | 1015.4 |
| 20260501213903 | 11 | 313 | 0.0 | 0.0 | 0.00 | 0.05 | 0.05 | 3 | 1015.4 |
| 20260501213405 | 11 | 313 | 0.0 | 0.0 | 0.00 | 0.05 | 0.05 | 3 | 1015.3 |
| 20260501211904 | 11 | 313 | 0.0 | 0.0 | 0.00 | 0.05 | 0.05 | 3 | 1015.3 |
| 20260501210404 | 11 | 313 | 0.0 | 0.0 | 0.00 | 0.05 | 0.05 | 3 | 1015.3 |
| 20260501204904 | 12 | 313 | 0.0 | 0.0 | 0.00 | 0.05 | 0.05 | 3 | 1015.3 |
| 20260501201405 | 12 | 313 | 0.0 | 0.0 | 0.00 | 0.05 | 0.05 | 3 | 1015.3 |
| 20260501194904 | 12 | 313 | 0.0 | 0.0 | 0.00 | 0.05 | 0.05 | 3 | 1015.3 |
| 20260501194404 | 12 | 313 | 0.0 | 0.0 | 0.00 | 0.05 | 0.05 | 3 | 1015.3 |
| 20260501193905 | 12 | 313 | 0.0 | 0.0 | 0.00 | 0.05 | 0.05 | 3 | 1015.3 |
| 20260501191905 | 12 | 313 | 0.0 | 0.0 | 0.00 | 0.05 | 0.05 | 3 | 1015.3 |
| 20260501191404 | 12 | 313 | 0.0 | 0.0 | 0.00 | 0.05 | 0.05 | 3 | 1015.3 |
| 20260501190904 | 12 | 313 | 0.0 | 0.0 | 0.00 | 0.05 | 0.05 | 3 | 1015.3 |
| 20260501184404 | 12 | 313 | 0.0 | 0.0 | 0.00 | 0.05 | 0.05 | 3 | 1015.2 |
| 20260501183903 | 12 | 312 | 0.0 | 0.0 | 0.00 | 0.05 | 0.05 | 3 | 1015.2 |